Radiation Dose at Monitoring Post of Fukushima Daini Nuclear Power Station
Date,Time,MP-1(microSv/h),MP-2(microSv/h),MP-3(microSv/h),MP-4(microSv/h),MP-5(microSv/h),MP-6(microSv/h),MP-7(microSv/h),Wind Direction,Wind Velocity(m/s),Rain
2022/10/10,00:00,0.149,0.135,0.216,0.207,0.210,0.119,0.078,northwest,8.6,Yes
2022/10/10,00:10,0.148,0.135,0.214,0.207,0.212,0.119,0.078,northwest,8.8,Yes
2022/10/10,00:20,0.147,0.135,0.215,0.206,0.210,0.118,0.076,northwest,8.1,Yes
2022/10/10,00:30,0.149,0.135,0.214,0.207,0.212,0.117,0.077,northwest,9.0,Yes
2022/10/10,00:40,0.149,0.135,0.216,0.208,0.211,0.120,0.078,northwest,7.9,Yes
2022/10/10,00:50,0.150,0.136,0.215,0.207,0.213,0.119,0.079,northwest,7.0,Yes
2022/10/10,01:00,0.149,0.136,0.214,0.209,0.212,0.120,0.080,northwest,6.4,Yes
2022/10/10,01:10,0.150,0.136,0.215,0.207,0.213,0.120,0.079,north-northwest,5.7,Yes
2022/10/10,01:20,0.148,0.136,0.215,0.208,0.211,0.119,0.078,northwest,6.7,Yes
2022/10/10,01:30,0.149,0.135,0.215,0.207,0.213,0.119,0.079,northwest,5.4,Yes
2022/10/10,01:40,0.149,0.135,0.215,0.208,0.212,0.119,0.079,northwest,5.5,Yes
2022/10/10,01:50,0.150,0.136,0.216,0.206,0.212,0.119,0.079,northwest,4.8,Yes
2022/10/10,02:00,0.149,0.136,0.214,0.209,0.212,0.119,0.079,northwest,3.6,Yes
2022/10/10,02:10,0.149,0.135,0.215,0.207,0.213,0.119,0.079,northwest,2.9,Yes
2022/10/10,02:20,0.150,0.137,0.215,0.208,0.213,0.121,0.079,north-northwest,2.7,Yes
2022/10/10,02:30,0.150,0.137,0.216,0.208,0.214,0.121,0.080,north-northwest,1.5,Yes
2022/10/10,02:40,0.150,0.138,0.217,0.209,0.214,0.122,0.081,north-northwest,1.9,Yes
2022/10/10,02:50,0.150,0.138,0.216,0.209,0.213,0.121,0.080,north,1.1,Yes
2022/10/10,03:00,0.152,0.137,0.217,0.208,0.215,0.121,0.080,north-northwest,1.1,Yes
2022/10/10,03:10,0.149,0.137,0.215,0.209,0.212,0.121,0.079,east-northeast,0.6,Yes
2022/10/10,03:20,0.151,0.137,0.216,0.208,0.214,0.121,0.081,-,CALM,Yes
2022/10/10,03:30,0.149,0.138,0.215,0.209,0.213,0.122,0.080,northwest,1.1,Yes
2022/10/10,03:40,0.152,0.137,0.217,0.208,0.215,0.122,0.082,north-northwest,0.7,Yes
2022/10/10,03:50,0.150,0.138,0.217,0.211,0.212,0.122,0.081,north-northeast,1.6,Yes
2022/10/10,04:00,0.153,0.139,0.217,0.209,0.216,0.123,0.084,north-northeast,0.9,Yes
2022/10/10,04:10,0.151,0.141,0.219,0.211,0.216,0.124,0.084,north-northwest,2.2,Yes
2022/10/10,04:20,0.154,0.141,0.219,0.211,0.218,0.125,0.084,north,1.6,Yes
2022/10/10,04:30,0.152,0.140,0.219,0.212,0.215,0.122,0.083,north-northwest,2.3,Yes
2022/10/10,04:40,0.152,0.139,0.217,0.209,0.217,0.123,0.082,north-northwest,2.5,Yes
2022/10/10,04:50,0.151,0.138,0.217,0.209,0.213,0.122,0.082,north-northwest,2.4,Yes
2022/10/10,05:00,0.152,0.139,0.217,0.209,0.217,0.121,0.082,north,2.9,Yes
2022/10/10,05:10,0.152,0.139,0.218,0.209,0.215,0.123,0.084,north-northwest,3.3,Yes
2022/10/10,05:20,0.152,0.140,0.217,0.210,0.217,0.124,0.083,north-northwest,3.1,Yes
2022/10/10,05:30,0.152,0.141,0.218,0.210,0.216,0.124,0.084,north,3.2,Yes
2022/10/10,05:40,0.152,0.140,0.219,0.210,0.217,0.122,0.083,north-northwest,3.4,Yes
2022/10/10,05:50,0.152,0.139,0.217,0.209,0.215,0.122,0.084,north,2.6,Yes
2022/10/10,06:00,0.153,0.140,0.218,0.211,0.217,0.122,0.082,north,2.0,Yes
2022/10/10,06:10,0.151,0.138,0.216,0.208,0.213,0.121,0.083,north,1.8,Yes
2022/10/10,06:20,0.151,0.137,0.218,0.209,0.216,0.121,0.082,north-northwest,1.2,Yes
2022/10/10,06:30,0.151,0.137,0.215,0.208,0.212,0.121,0.081,north,0.8,Yes
2022/10/10,06:40,0.150,0.137,0.217,0.210,0.214,0.121,0.081,north-northeast,1.1,Yes
2022/10/10,06:50,0.151,0.138,0.216,0.209,0.215,0.121,0.082,north-northeast,1.2,Yes
2022/10/10,07:00,0.150,0.138,0.217,0.209,0.215,0.122,0.082,north-northwest,1.1,Yes
2022/10/10,07:10,0.151,0.139,0.216,0.208,0.212,0.122,0.082,north-northwest,1.5,Yes
2022/10/10,07:20,0.150,0.138,0.217,0.208,0.214,0.121,0.082,northwest,1.6,Yes
2022/10/10,07:30,0.151,0.137,0.216,0.209,0.213,0.120,0.081,west-northwest,2.5,Yes
2022/10/10,07:40,0.148,0.137,0.214,0.208,0.215,0.120,0.081,northwest,2.3,Yes
2022/10/10,07:50,0.148,0.136,0.215,0.207,0.211,0.119,0.080,west-northwest,1.4,Yes
2022/10/10,08:00,0.148,0.135,0.215,0.206,0.212,0.119,0.079,west-northwest,1.5,Yes
2022/10/10,08:10,0.149,0.136,0.213,0.205,0.210,0.118,0.078,northwest,1.2,Yes
2022/10/10,08:20,0.147,0.135,0.214,0.206,0.212,0.118,0.078,northwest,0.8,Yes
2022/10/10,08:30,0.147,0.135,0.214,0.204,0.211,0.118,0.078,north-northwest,0.6,Yes
2022/10/10,08:40,0.147,0.134,0.214,0.206,0.211,0.117,0.078,north-northwest,0.7,Yes
2022/10/10,08:50,0.146,0.135,0.212,0.204,0.210,0.117,0.078,-,CALM,Yes
2022/10/10,09:00,0.146,0.133,0.213,0.205,0.209,0.116,0.076,north-northwest,0.9,Yes
2022/10/10,09:10,0.146,0.133,0.211,0.204,0.210,0.117,0.076,west-northwest,0.7,Yes
2022/10/10,09:20,0.146,0.132,0.212,0.205,0.209,0.116,0.076,northwest,0.7,Yes
2022/10/10,09:30,0.145,0.133,0.209,0.203,0.210,0.116,0.076,-,CALM,No
2022/10/10,09:40,0.146,0.131,0.211,0.204,0.209,0.116,0.076,south,0.7,No
2022/10/10,09:50,0.144,0.133,0.210,0.204,0.209,0.115,0.076,south,1.1,Yes
2022/10/10,10:00,0.145,0.132,0.210,0.203,0.209,0.115,0.076,east-southeast,1.4,No
2022/10/10,10:10,0.145,0.132,0.211,0.204,0.207,0.115,0.075,southeast,1.4,No
2022/10/10,10:20,0.144,0.133,0.210,0.203,0.210,0.115,0.075,southeast,1.9,No
2022/10/10,10:30,0.146,0.130,0.211,0.202,0.208,0.115,0.074,south-southeast,2.4,No
2022/10/10,10:40,0.144,0.132,0.210,0.204,0.208,0.115,0.075,south-southeast,2.5,No
2022/10/10,10:50,0.145,0.131,0.211,0.201,0.210,0.116,0.075,south-southeast,4.2,No
2022/10/10,11:00,0.145,0.132,0.211,0.203,0.206,0.115,0.075,south-southeast,4.1,No
2022/10/10,11:10,0.144,0.132,0.210,0.203,0.209,0.115,0.075,south-southeast,4.3,No
2022/10/10,11:20,0.145,0.131,0.212,0.204,0.209,0.114,0.075,south-southeast,4.1,No
2022/10/10,11:30,0.144,0.132,0.210,0.205,0.207,0.115,0.075,south-southeast,5.2,No
2022/10/10,11:40,0.144,0.131,0.211,0.203,0.211,0.116,0.075,south-southeast,6.8,Yes
2022/10/10,11:50,0.145,0.132,0.211,0.204,0.210,0.115,0.075,south-southeast,7.7,Yes
2022/10/10,12:00,0.144,0.133,0.209,0.205,0.207,0.115,0.075,south-southeast,8.1,No
2022/10/10,12:10,0.146,0.133,0.210,0.202,0.211,0.117,0.075,south,7.1,No
2022/10/10,12:20,0.145,0.132,0.210,0.205,0.208,0.114,0.075,south,8.2,No
2022/10/10,12:30,0.144,0.132,0.209,0.204,0.208,0.115,0.075,south,7.5,No
2022/10/10,12:40,0.146,0.130,0.211,0.203,0.210,0.115,0.075,south,8.1,No
2022/10/10,12:50,0.145,0.132,0.211,0.204,0.208,0.115,0.076,south,8.8,No
2022/10/10,13:00,0.145,0.133,0.210,0.203,0.210,0.115,0.076,south-southwest,8.2,No
2022/10/10,13:10,0.145,0.132,0.213,0.205,0.210,0.115,0.074,south-southwest,8.5,No
2022/10/10,13:20,0.146,0.132,0.212,0.204,0.208,0.114,0.074,south,8.7,No
2022/10/10,13:30,0.144,0.131,0.209,0.203,0.206,0.116,0.075,south,9.6,No
2022/10/10,13:40,0.145,0.131,0.212,0.205,0.208,0.116,0.075,south,9.2,No
2022/10/10,13:50,0.145,0.132,0.212,0.203,0.209,0.115,0.074,south,8.6,No
2022/10/10,14:00,0.144,0.132,0.211,0.202,0.207,0.114,0.074,south,6.2,No
2022/10/10,14:10,0.143,0.133,0.210,0.205,0.207,0.115,0.074,south-southwest,5.4,No
2022/10/10,14:20,0.143,0.130,0.213,0.205,0.207,0.116,0.075,south-southwest,6.3,No
2022/10/10,14:30,0.143,0.130,0.213,0.203,0.209,0.116,0.074,south-southwest,4.8,No
2022/10/10,14:40,0.146,0.130,0.209,0.204,0.207,0.115,0.075,south-southwest,4.4,No
2022/10/10,14:50,0.146,0.132,0.211,0.205,0.207,0.115,0.075,southwest,3.6,No
2022/10/10,15:00,0.146,0.133,0.213,0.205,0.208,0.116,0.075,southwest,3.4,No
2022/10/10,15:10,0.145,0.131,0.211,0.205,0.209,0.116,0.075,southwest,3.2,No
2022/10/10,15:20,0.145,0.132,0.211,0.206,0.208,0.115,0.074,west-southwest,4.7,No
2022/10/10,15:30,0.146,0.132,0.214,0.204,0.208,0.115,0.074,west-southwest,5.5,No
2022/10/10,15:40,0.146,0.132,0.211,0.204,0.211,0.115,0.075,west-southwest,6.3,No
2022/10/10,15:50,0.144,0.132,0.213,0.206,0.209,0.115,0.076,west-southwest,6.1,No
2022/10/10,16:00,0.147,0.132,0.213,0.205,0.207,0.116,0.075,west-southwest,4.6,No
2022/10/10,16:10,0.146,0.132,0.210,0.204,0.211,0.116,0.075,west-southwest,3.3,No
2022/10/10,16:20,0.144,0.131,0.213,0.206,0.210,0.115,0.075,west,3.6,No
2022/10/10,16:30,0.146,0.133,0.212,0.204,0.208,0.116,0.074,west,4.9,No
2022/10/10,16:40,0.146,0.132,0.210,0.205,0.210,0.117,0.075,west,4.5,No
2022/10/10,16:50,0.144,0.132,0.213,0.206,0.209,0.116,0.074,west,4.6,No
2022/10/10,17:00,0.147,0.132,0.212,0.205,0.209,0.116,0.075,west-southwest,4.3,No
2022/10/10,17:10,0.146,0.132,0.212,0.206,0.210,0.116,0.075,west-southwest,4.1,Yes
2022/10/10,17:20,0.145,0.133,0.213,0.206,0.211,0.115,0.075,west-southwest,3.5,No
2022/10/10,17:30,0.146,0.133,0.211,0.204,0.208,0.116,0.074,west-southwest,2.7,Yes
2022/10/10,17:40,0.145,0.132,0.212,0.206,0.210,0.116,0.075,west-southwest,3.6,No
2022/10/10,17:50,0.146,0.133,0.212,0.206,0.211,0.116,0.074,west,3.2,No
2022/10/10,18:00,0.146,0.132,0.212,0.204,0.207,0.117,0.075,west-northwest,1.4,No
2022/10/10,18:10,0.145,0.132,0.213,0.206,0.211,0.116,0.075,northwest,1.1,No
2022/10/10,18:20,0.146,0.133,0.212,0.204,0.210,0.116,0.075,-,CALM,No
2022/10/10,18:30,0.147,0.132,0.213,0.206,0.208,0.116,0.076,-,CALM,Yes
2022/10/10,18:40,0.145,0.134,0.212,0.205,0.210,0.115,0.076,-,CALM,No
2022/10/10,18:50,0.147,0.132,0.212,0.204,0.210,0.116,0.076,west,1.2,No
2022/10/10,19:00,0.145,0.133,0.214,0.206,0.209,0.117,0.075,west,2.3,Yes
2022/10/10,19:10,0.146,0.132,0.212,0.205,0.211,0.116,0.074,west,1.2,Yes
2022/10/10,19:20,0.147,0.133,0.214,0.206,0.208,0.117,0.075,west,0.9,No
2022/10/10,19:30,0.145,0.132,0.212,0.206,0.211,0.116,0.076,west,0.6,No
2022/10/10,19:40,0.146,0.132,0.212,0.206,0.210,0.116,0.076,west-northwest,1.2,No
2022/10/10,19:50,0.146,0.134,0.213,0.206,0.208,0.117,0.075,west,1.7,No
2022/10/10,20:00,0.146,0.132,0.212,0.205,0.211,0.116,0.076,west-southwest,0.7,No
2022/10/10,20:10,0.147,0.134,0.214,0.207,0.209,0.117,0.075,south-southwest,0.9,No
2022/10/10,20:20,0.145,0.132,0.212,0.206,0.208,0.117,0.075,south,0.6,No
2022/10/10,20:30,0.147,0.133,0.214,0.205,0.211,0.116,0.076,west,0.8,No
2022/10/10,20:40,0.146,0.132,0.212,0.207,0.208,0.117,0.075,west-northwest,2.7,No
2022/10/10,20:50,0.146,0.133,0.213,0.204,0.211,0.117,0.075,west-northwest,2.1,No
2022/10/10,21:00,0.147,0.133,0.213,0.208,0.210,0.116,0.076,west-northwest,1.3,No
2022/10/10,21:10,0.145,0.132,0.211,0.207,0.209,0.117,0.076,west-northwest,1.0,No
2022/10/10,21:20,0.147,0.133,0.214,0.206,0.210,0.116,0.076,west-northwest,0.6,No
2022/10/10,21:30,0.145,0.132,0.211,0.207,0.209,0.116,0.076,west-northwest,1.2,No
2022/10/10,21:40,0.146,0.134,0.214,0.204,0.209,0.117,0.076,west-northwest,1.3,No
2022/10/10,21:50,0.147,0.132,0.212,0.207,0.211,0.117,0.076,west,2.9,No
2022/10/10,22:00,0.146,0.132,0.214,0.205,0.208,0.117,0.075,west,3.6,No
2022/10/10,22:10,0.147,0.133,0.214,0.207,0.211,0.116,0.075,west-northwest,3.6,No
2022/10/10,22:20,0.146,0.133,0.213,0.207,0.210,0.118,0.075,west,3.7,No
2022/10/10,22:30,0.145,0.132,0.214,0.206,0.211,0.117,0.075,west,4.5,No
2022/10/10,22:40,0.147,0.133,0.212,0.207,0.211,0.116,0.075,west,5.8,No
2022/10/10,22:50,0.146,0.134,0.215,0.204,0.209,0.117,0.075,west,5.3,Yes
2022/10/10,23:00,0.147,0.133,0.213,0.208,0.211,0.116,0.076,west,4.7,No
2022/10/10,23:10,0.146,0.134,0.212,0.206,0.211,0.117,0.075,west,5.0,No
2022/10/10,23:20,0.147,0.132,0.214,0.206,0.209,0.117,0.075,west,5.5,No
2022/10/10,23:30,0.147,0.133,0.213,0.208,0.210,0.116,0.075,west,5.6,No
2022/10/10,23:40,0.147,0.133,0.215,0.205,0.209,0.117,0.075,west,5.0,No
2022/10/10,23:50,0.148,0.133,0.212,0.208,0.212,0.116,0.076,west,5.2,Yes
